SL-19 DEB, 23490

Orbit data source: Space-Track

SL-19 DEB, 23490 is space debris in LEO originally from a launch on Mon, 26 Dec 1994 UTC launched from the Tyuratam Missile And Space Complex (TTMTR). Debris objects in space refer to the collection of defunct objects orbiting the Earth. Examples of debris include non-operational satellites, rocket bodies, and fragments generated from explosions, collisions, or faulty payload assembly.

Loading next visibility...
Identifier
23490, 1994-085N
Orbit
LEO
Country
Flag of CISCIS
Related business
Manufacturer
Unknown
Mission
Spacecraft
Bus & Motor
Unknown
Mass
Unknown
Launch date (UTC)
1994-12-26 (31 years ago)
Launch vehicle
Unknown
Launch site
Tyuratam Missile And Space Complex (TTMTR)
Object type
Payload
Rocket body
Debris
Shape & HBR
Unknown shape, 0.2 m
Radar Cross Section
Medium (>0.1 m² and <1 m²)

Expand to show TLE details & history
Last TLE update: 15 hours ago

TLE from 15 hours ago
0 SL-19 DEB
1 23490U 94085N   26062.19438748 -.00000044  00000-0 -75566-4 0  9997
2 23490  64.8289  33.4721 0128202  21.2532  75.3245 11.20508075275938
Epoch: 2026-03-03T04:39Z
TLE epoch observation values (Epoch: 2026-03-03T04:39:55.078Z)
Latitude
63.7687°
Longitude
-89.16991°
Altitude
2,041.598 km
Speed
6.898 km/s
True Right ascension
09h 27m 08s
True Declination
63° 39' 11"
Sunlit
Object was in daylight at epoch
Visualization orbit readout
Latitude
Unknown
Longitude
Unknown
Altitude
Unknown
Speed
Unknown
Apparent Right ascension
Unknown
Apparent Declination
Unknown
Sunlit
N/A
Visualization observer readout
Local Sidereal Time
23:31:20
Azimuth
Unknown
Elevation
Unknown
Doppler factor
Unknown
Orbital elements
Apogee altitude
2,164.586 km
Perigee altitude
1,948.32 km
Semi-major axis
8,434.59 km
Eccentricity
0.01282
Inclination
64.8289°
RAAN
33.4721°
Arg. of periapsis
21.2532°
True anomaly
76.7513°
Mean anomaly
75.3245°
Eccentric anomaly
76.03734°
Mean motion
2.80186 °/min
Orbital period
128.49 mins
BSTAR
-0.000075566
Loading maneuver chart data...
Computing Atmospheric mass density...
Loading historical data...
Loading historical data...
Loading historical data...
Loading historical data...
Loading historical data...
Loading historical data...
Loading historical data...

Documentation

Showing up to 5 results
|